Regional Weather Roundup
Issued by NWS

Home | Current Version | Previous Version | Text Only | Print | Product List | Glossary On
Versions: 1 2 3 4 5 6 7 8 9 10 11 12 13 14 15 16 17 18 19 20 21 22 23 24 25 26 27 28
000
ASCA42 TJSJ 230310
RWRPR
PUERTO RICO/U.S. VIRGIN ISLANDS HOURLY WEATHER ROUNDUP
NATIONAL WEATHER SERVICE SAN JUAN PR
1100 PM AST WED FEB 22 2017

PRZ001>002-007>008-010-230400-
PUERTO RICO

CITY           SKY/WX    TMP DP  RH WIND       PRES   REMARKS
SAN JUAN LMM   PTCLDY    77  70  78 SE5       29.92R
PONCE          MOCLDY    73  72  94 CALM      29.96
AGUADILLA      CLEAR     72  64  78 SE6       29.92S
CEIBA          LGT RAIN  75  72  88 CALM      29.94S
$$

VIZ001>002-230400-
U.S. VIRGIN ISLANDS

CITY           SKY/WX    TMP DP  RH WIND       PRES   REMARKS
CHARLOTTE AMA  CLEAR     75  66  73 E6        29.90S
CHRISTIANSTED  MOCLDY    73  68  83 N7        29.92S
$$

HOURLY WEATHER ROUNDUP FOR THE NEWS MEDIA

CITY           SKY/WX    TMP DP  RH WIND       PRES   REMARKS
ORLANDO        MOCLDY    64  62  93 NE7       29.69S
NEW YORK       MOCLDY    42  42 100 S3        29.92F
NEWARK         CLOUDY    50  42  74 S3        29.91S
CHICAGO        CLEAR     62  53  72 SW17G26   29.61S
HARTFORD       CLEAR     40  36  86 S3        29.91S
BOSTON         CLEAR     41  38  89 S6        29.89F
DALLAS         CLEAR     73  48  41 SE14      29.73F
PHILADELPHIA   CLOUDY    46  42  86 CALM      29.92F
LOS ANGELES    PTCLDY    60  47  61 NW8       30.03R
WASHINGTON DC  CLOUDY    53  48  83 S5        29.90S



USA.gov is the U.S. government's official web portal to all federal, state and local government web resources and services.